Date,TemperatureHighF,TemperatureAvgF,TemperatureLowF,DewpointHighF,DewpointAvgF,DewpointLowF,HumidityHigh,HumidityAvg,HumidityLow,PressureMaxIn,PressureMinIn,WindSpeedMaxMPH,WindSpeedAvgMPH,GustSpeedMaxMPH,PrecipitationSumIn
2013-3-27,53,46,35,36,34,32,91,67,49,30.11,30.03,11,2,0,0.00
2013-3-28,66,46,29,40,32,27,96,66,27,30.09,29.98,9,1,0,0.00
2013-3-29,66,53,34,40,33,29,87,50,27,30.05,29.90,19,3,19,0.00
2013-3-30,67,47,33,40,33,27,92,63,26,30.12,29.87,21,3,21,0.00
2013-3-31,71,48,27,40,30,24,98,60,19,30.12,29.83,13,1,13,0.00
2013-4-1,54,40,26,35,29,-100,88,69,46,30.08,29.93,14,2,14,0.00
2013-4-2,41,38,36,38,34,32,95,85,73,30.12,30.04,11,2,0,0.15
2013-4-3,64,47,34,42,36,27,97,70,31,30.15,29.97,10,1,0,0.00
2013-4-4,72,55,35,40,29,-100,89,49,21,30.06,29.81,13,1,13,0.01
2013-4-5,76,57,43,43,34,24,77,47,15,29.81,29.47,28,3,28,0.00
2013-4-6,66,52,34,38,29,23,72,43,20,29.77,29.64,17,1,17,0.00
2013-4-7,68,51,38,40,33,22,89,54,19,29.71,29.51,13,1,13,0.00
2013-4-8,65,44,26,38,32,24,91,67,32,29.76,29.25,35,6,35,0.00
2013-4-9,26,19,13,23,3,-100,90,82,70,30.39,29.74,22,6,22,0.00
2013-4-10,29,19,8,20,6,-100,88,76,60,30.39,30.09,13,1,14,0.01
2013-4-11,57,36,17,37,19,-100,90,70,38,30.09,29.85,15,2,15,0.00
2013-4-12,58,46,32,36,32,28,89,62,39,29.93,29.79,28,3,28,0.00
2013-4-13,67,40,28,40,30,23,96,76,20,29.89,29.29,18,1,18,0.04
2013-4-14,49,43,37,40,12,-100,91,41,18,29.63,29.40,32,8,32,0.12
2013-4-15,30,26,23,28,24,21,94,93,88,30.14,29.72,9,0,0,0.00
2013-4-16,32,27,22,30,25,21,95,92,87,30.14,29.98,0,0,0,0.00
2013-4-17,30,27,19,29,24,14,96,91,81,30.28,30.02,15,1,15,0.00
2013-4-18,40,21,9,20,10,-100,95,77,41,30.30,30.24,5,0,0,0.13
2013-4-19,24,20,18,18,13,-100,91,84,70,30.27,30.21,6,0,0,0.00
2013-5-6,67,56,34,42,30,-100,83,51,28,29.98,29.74,12,2,0,0.00
2013-5-7,71,53,40,45,40,35,88,64,31,29.81,29.70,17,1,17,0.00